Wind_Speed
17 18 19 18 18 20 22 22 23 23 24 24 25 26 26 27 28 29 30 31 31 32 32 33 34 34 34 35 36 37 38 39 39 39 38 38 38 38 38 37 37 36 35 34
18 19 19 20 20 20 21 22 23 23 24 24 25 25 26 26 27 29 30 31 31 31 31 32 33 34 34 35 35 36 37 37 38 38 38 37 37 37 37 36 36 36 35 34
18 18 20 20 21 22 22 22 23 23 24 24 24 25 25 26 27 28 29 30 31 31 31 31 32 33 34 34 35 35 36 36 36 37 37 38 37 37 36 36 36 36 35 34
19 19 19 19 21 23 23 23 23 23 23 24 24 24 25 25 26 27 28 30 31 31 32 31 31 31 33 34 34 35 34 35 36 36 36 37 37 36 36 35 35 35 35 35
21 21 20 19 20 23 23 23 24 24 24 24 23 24 25 26 27 27 28 29 31 32 32 32 32 31 31 32 33 33 34 34 35 35 36 36 36 36 36 35 35 36 36 36
21 21 20 20 21 23 24 24 24 25 25 25 24 25 25 26 27 28 29 29 31 32 32 32 32 32 32 32 33 33 34 34 34 34 35 36 36 36 36 36 36 36 36 36
20 21 20 20 21 22 24 25 25 25 26 26 26 26 26 27 27 27 29 29 30 31 31 32 32 33 33 33 33 33 33 33 34 34 34 35 36 36 36 36 35 35 35 35
20 21 21 21 22 22 23 24 25 25 26 26 27 27 27 27 28 28 29 29 29 30 31 31 31 32 32 33 33 32 32 33 33 33 33 34 34 35 35 34 34 34 34 34
22 21 22 22 22 22 23 24 24 25 26 26 27 27 27 27 28 28 29 29 30 30 30 31 31 31 32 32 32 32 33 33 32 32 32 33 34 34 35 34 34 33 33 33
23 22 23 23 23 23 23 24 24 25 25 26 27 27 27 27 27 28 29 29 29 30 31 31 31 31 32 32 33 33 33 33 33 32 31 31 33 33 34 34 34 33 33 33
24 23 23 24 24 24 24 24 25 25 26 27 27 28 28 28 28 28 28 29 29 29 30 31 31 31 32 32 32 32 32 32 32 32 32 32 32 33 34 34 34 33 33 32
24 24 24 24 25 25 25 25 26 27 27 28 28 29 29 29 29 29 28 29 29 29 29 30 30 30 31 31 31 31 31 31 32 32 32 32 31 31 32 32 33 33 32 31
25 24 25 25 24 25 25 26 26 26 27 28 29 30 30 29 29 30 29 29 29 29 29 29 29 30 31 31 30 30 30 31 31 31 31 31 30 30 30 30 31 32 31 31
24 24 25 25 25 25 25 25 26 26 26 26 27 28 29 30 30 30 30 30 30 30 30 29 29 28 29 29 29 29 29 30 31 31 31 31 31 30 30 30 30 30 30 30
23 23 24 24 25 25 25 26 26 26 26 26 27 28 29 29 30 30 31 31 30 30 30 29 29 28 28 29 29 29 29 29 29 29 30 30 30 30 30 30 30 29 29 29
23 23 23 23 24 24 25 25 26 26 27 27 27 28 29 29 29 30 30 31 31 31 30 29 29 28 28 29 29 29 28 28 28 28 28 28 29 29 29 29 29 30 29 28
24 23 23 22 23 24 25 25 25 26 26 27 27 27 28 29 29 30 30 30 31 31 30 29 28 28 28 27 27 27 27 27 26 26 26 27 27 27 28 28 28 29 28 28
24 24 23 23 23 23 24 24 25 26 26 27 28 28 28 28 29 29 30 30 30 30 30 30 29 28 27 26 26 26 26 25 25 25 25 25 26 26 26 27 27 28 28 28
24 24 24 24 24 24 24 24 25 25 26 26 27 28 28 29 29 29 29 30 30 30 30 30 30 29 28 27 26 26 25 25 25 24 24 24 25 25 25 25 26 26 27 28
24 24 24 24 24 24 25 25 25 25 26 26 26 27 28 28 28 28 29 29 29 29 29 29 29 29 28 28 27 26 26 25 25 25 24 24 24 24 24 24 25 26 27 27
25 25 25 24 24 25 25 25 25 25 25 26 26 26 26 27 27 27 27 27 28 28 28 28 28 27 27 28 27 27 26 26 25 25 25 24 24 24 24 24 25 26 26 27
25 25 25 25 25 25 25 25 25 25 25 25 25 25 24 25 25 25 25 25 25 26 26 26 27 26 26 26 26 26 26 26 25 25 25 24 24 24 24 24 25 25 26 26
26 26 26 25 25 25 25 25 25 25 25 25 24 24 23 23 23 24 23 24 24 24 24 25 25 25 26 25 25 25 25 25 25 25 24 24 24 23 23 23 24 24 25 25
26 26 26 26 26 26 25 25 25 25 24 24 24 23 22 22 22 22 22 22 23 22 22 22 23 24 25 25 25 25 25 25 25 25 25 24 24 23 23 23 23 23 23 24
26 26 26 25 25 25 25 25 25 24 24 23 23 22 22 21 21 21 21 21 21 21 21 22 22 23 23 24 24 24 24 24 25 25 25 24 24 23 23 23 23 23 23 23
26 26 26 26 25 25 24 24 23 23 23 22 21 21 21 21 21 21 21 21 22 22 22 22 22 22 23 23 23 23 23 23 24 24 24 24 24 23 23 23 23 23 23 24
26 25 25 25 25 23 23 22 21 21 21 20 20 20 21 21 21 21 21 21 22 22 23 23 23 23 22 22 22 23 23 23 23 23 23 24 24 24 23 23 23 23 23 23
Wind_Direction
266 260 258 258 254 248 248 250 251 251 254 254 253 252 250 247 245 243 242 241 241 242 244 246 246 246 246 246 246 246 247 247 247 248 249 251 253 254 256 257 259 261 263 264
266 263 260 257 253 252 251 252 254 255 254 254 254 253 252 249 246 244 243 242 243 245 246 248 248 247 247 247 247 248 248 248 248 248 249 251 252 254 256 257 258 259 261 263
267 263 263 258 253 251 251 252 253 253 254 254 254 254 253 250 248 247 245 243 245 246 247 248 248 248 248 247 248 249 249 249 249 250 250 250 252 253 255 257 258 259 260 262
274 268 267 262 255 252 252 252 253 254 253 254 255 254 254 251 249 249 248 247 246 247 248 249 250 249 249 249 250 250 251 251 251 251 252 252 252 252 254 256 258 259 261 262
276 275 271 265 260 256 254 255 254 255 255 256 257 256 255 253 251 249 249 249 248 247 248 250 251 250 250 250 251 251 252 252 252 252 252 253 253 253 254 255 257 259 260 262
276 277 276 270 266 260 257 258 257 258 258 258 258 258 256 255 254 252 252 251 250 250 249 250 251 251 252 252 252 252 253 253 253 253 253 253 253 254 255 256 256 258 259 261
278 278 277 273 269 265 260 260 260 259 257 258 259 259 258 257 256 255 254 254 253 252 252 252 252 252 252 253 253 253 254 255 256 255 255 254 254 254 255 256 256 258 259 260
280 279 279 278 273 268 266 263 262 261 260 258 258 259 259 259 258 257 255 255 254 253 253 253 253 253 252 253 253 254 255 256 257 257 256 255 254 254 255 256 257 257 257 258
280 280 280 279 275 270 267 266 264 263 261 260 259 259 259 258 258 258 257 256 254 254 254 254 254 253 253 253 253 254 254 255 256 257 257 256 255 255 255 256 257 257 256 257
280 280 279 279 276 272 269 267 266 265 262 260 260 259 259 259 259 258 257 257 255 255 256 256 256 254 254 254 254 254 255 255 256 256 257 257 257 256 256 256 256 256 256 257
279 279 278 277 275 275 272 270 268 266 264 262 261 260 260 260 260 259 258 257 257 257 258 258 257 256 255 255 255 256 256 256 255 255 255 257 258 258 257 256 255 254 254 255
280 279 279 277 275 275 273 272 270 268 266 262 261 260 260 260 260 259 258 258 258 259 259 259 258 257 256 256 256 256 256 255 256 256 255 256 257 257 257 256 255 254 254 255
280 279 278 277 275 273 272 272 271 271 269 265 262 260 260 260 260 259 259 259 258 259 260 260 259 258 258 257 256 258 257 256 258 257 255 254 256 256 256 256 255 254 254 255
281 280 277 276 274 272 271 272 272 271 270 268 264 261 259 258 259 260 258 258 258 259 260 260 259 258 257 257 256 258 259 258 259 258 255 254 255 255 255 255 254 253 254 254
284 283 280 277 274 273 272 273 273 272 270 268 266 262 260 259 259 259 258 258 258 259 260 260 259 258 257 257 257 258 259 259 259 258 255 255 255 255 255 254 253 253 254 254
283 284 283 279 276 276 275 275 274 273 272 270 268 265 262 260 260 260 258 257 258 258 259 258 258 258 257 257 257 257 257 258 258 257 256 254 254 254 255 254 253 253 254 254
281 282 282 281 278 278 277 277 276 275 274 271 269 267 264 262 260 259 259 258 257 257 257 257 257 257 256 256 255 255 255 256 257 257 256 254 253 254 254 254 252 250 250 251
282 282 282 281 280 279 279 279 278 277 275 273 269 267 266 264 262 261 259 257 257 257 256 255 255 254 254 254 253 253 254 255 255 256 256 254 254 254 254 254 251 249 249 250
284 282 282 282 282 281 281 281 281 280 278 276 272 269 267 265 263 262 260 258 257 256 255 254 253 252 252 252 252 252 253 253 254 255 256 255 254 254 254 253 251 249 250 250
285 283 282 283 283 283 284 284 283 281 280 279 276 272 268 265 264 263 261 259 257 255 253 252 252 251 250 250 251 252 252 252 253 254 255 256 255 254 253 253 252 251 251 251
287 284 283 283 283 284 285 285 285 283 282 280 278 275 270 266 264 263 261 259 256 254 252 251 250 251 250 250 250 251 252 252 253 253 253 254 254 254 254 254 253 252 251 251
289 287 285 284 284 284 284 285 285 284 283 281 278 275 272 267 264 262 260 257 255 254 251 249 248 249 250 250 250 250 251 251 251 251 251 252 253 254 253 252 252 251 251 251
291 289 286 284 284 284 284 285 285 284 282 280 278 274 271 268 265 261 258 256 254 252 250 248 247 248 249 249 249 250 250 250 250 249 249 251 253 253 253 252 251 251 251 251
293 291 288 287 286 285 284 284 285 284 282 280 277 273 270 268 265 262 257 253 252 250 249 248 248 248 249 249 249 250 250 249 248 248 248 250 252 254 254 252 251 251 251 251
293 292 290 289 288 286 284 284 283 283 282 280 277 272 267 265 263 261 256 252 250 248 248 250 250 249 249 249 249 250 250 249 248 247 247 249 250 252 253 252 251 250 251 252
294 293 292 290 290 287 285 283 282 281 281 279 276 272 267 264 262 259 255 251 249 248 249 250 249 249 249 250 249 249 249 248 248 248 248 249 250 251 251 251 251 251 252 251
294 294 293 292 290 288 286 284 282 281 279 278 275 273 269 265 262 259 255 252 251 250 250 249 249 250 250 249 250 250 248 246 246 246 248 249 250 251 251 251 251 252 251 251
Height
5590 5591 5591 5592 5593 5594 5596 5598 5600 5602 5603 5605 5606 5607 5609 5611 5613 5616 5619 5622 5625 5628 5630 5633 5635 5638 5640 5642 5645 5648 5650 5653 5656 5658 5661 5663 5665 5667 5669 5671 5672 5674 5675 5676
5587 5587 5587 5588 5589 5590 5592 5593 5595 5597 5599 5599 5600 5602 5603 5605 5607 5609 5612 5614 5617 5620 5622 5625 5627 5629 5632 5634 5636 5639 5641 5644 5646 5649 5651 5654 5656 5658 5660 5661 5663 5664 5665 5667
5582 5582 5582 5584 5585 5586 5587 5589 5590 5591 5594 5594 5595 5596 5597 5599 5601 5603 5605 5607 5610 5612 5614 5617 5619 5621 5623 5625 5628 5630 5632 5635 5637 5639 5641 5644 5646 5648 5650 5652 5653 5655 5656 5657
5577 5578 5578 5582 5580 5581 5582 5584 5585 5585 5587 5588 5589 5590 5591 5593 5594 5596 5598 5600 5602 5604 5606 5608 5611 5613 5615 5617 5619 5621 5623 5625 5627 5629 5632 5634 5636 5638 5640 5642 5644 5645 5647 5648
5572 5572 5573 5575 5575 5576 5577 5578 5579 5580 5581 5582 5582 5583 5585 5586 5588 5589 5591 5593 5594 5596 5598 5600 5602 5605 5607 5609 5610 5613 5614 5616 5618 5620 5622 5624 5626 5628 5630 5632 5634 5635 5637 5638
5567 5567 5568 5570 5570 5569 5571 5572 5573 5573 5574 5575 5576 5578 5579 5579 5581 5582 5583 5585 5586 5588 5590 5592 5594 5596 5598 5600 5602 5604 5606 5607 5609 5610 5612 5614 5616 5618 5620 5622 5624 5625 5627 5628
5562 5562 5563 5564 5563 5564 5566 5567 5567 5567 5568 5568 5569 5571 5572 5572 5573 5574 5576 5577 5578 5580 5582 5584 5586 5588 5590 5592 5593 5595 5596 5598 5600 5601 5603 5604 5606 5608 5610 5612 5614 5616 5617 5619
5558 5558 5560 5558 5557 5558 5559 5559 5559 5560 5561 5561 5562 5563 5564 5565 5566 5567 5568 5569 5570 5572 5574 5576 5577 5579 5581 5583 5584 5586 5588 5589 5591 5592 5593 5595 5597 5599 5601 5602 5604 5606 5607 5609
5555 5556 5553 5552 5551 5551 5552 5552 5552 5553 5553 5554 5555 5556 5557 5557 5558 5559 5560 5561 5562 5564 5566 5567 5569 5570 5572 5574 5575 5577 5579 5580 5582 5583 5584 5585 5587 5589 5591 5593 5595 5596 5598 5599
5548 5548 5547 5546 5545 5545 5545 5545 5545 5545 5546 5546 5547 5548 5549 5550 5550 5551 5552 5553 5554 5556 5557 5559 5560 5561 5563 5564 5566 5568 5569 5571 5572 5574 5575 5576 5578 5579 5581 5583 5585 5587 5588 5590
5542 5541 5540 5539 5538 5538 5538 5538 5538 5538 5538 5538 5539 5540 5541 5542 5542 5543 5544 5545 5546 5548 5549 5550 5551 5552 5553 5555 5557 5558 5560 5561 5563 5564 5566 5567 5569 5570 5571 5573 5575 5577 5579 5580
5535 5534 5533 5533 5532 5531 5531 5530 5530 5530 5530 5530 5531 5532 5533 5534 5534 5535 5536 5537 5538 5539 5540 5541 5542 5543 5544 5546 5547 5549 5550 5552 5553 5555 5556 5558 5559 5561 5562 5564 5565 5567 5569 5571
5528 5527 5526 5525 5524 5524 5523 5523 5523 5522 5522 5522 5522 5523 5524 5525 5526 5527 5528 5529 5530 5531 5532 5532 5533 5534 5535 5537 5538 5540 5541 5543 5544 5545 5547 5548 5550 5552 5553 5555 5556 5558 5560 5562
5520 5519 5518 5518 5517 5516 5516 5515 5515 5515 5514 5514 5514 5515 5515 5516 5517 5518 5519 5520 5521 5522 5523 5524 5524 5525 5526 5528 5529 5531 5532 5533 5535 5536 5538 5539 5541 5543 5544 5545 5547 5549 5551 5553
5513 5512 5511 5510 5509 5509 5508 5508 5507 5507 5506 5506 5506 5506 5507 5507 5508 5509 5510 5511 5512 5513 5514 5515 5516 5517 5518 5519 5520 5522 5523 5524 5525 5527 5528 5530 5532 5533 5535 5537 5538 5540 5542 5544
5506 5505 5504 5502 5502 5501 5500 5500 5499 5499 5498 5498 5498 5498 5498 5499 5499 5500 5501 5502 5503 5504 5505 5506 5507 5508 5509 5510 5512 5513 5514 5516 5517 5518 5519 5521 5523 5525 5526 5528 5530 5532 5534 5536
5499 5498 5497 5495 5494 5493 5493 5492 5491 5490 5490 5489 5489 5489 5489 5490 5490 5491 5492 5493 5494 5495 5496 5498 5499 5500 5501 5502 5503 5505 5506 5507 5509 5510 5511 5513 5514 5516 5518 5519 5521 5523 5525 5527
5492 5491 5489 5488 5487 5486 5485 5484 5483 5482 5481 5481 5480 5480 5480 5481 5481 5482 5483 5484 5485 5486 5487 5489 5490 5491 5492 5494 5495 5497 5498 5500 5501 5502 5504 5505 5506 5508 5509 5511 5512 5514 5517 5519
5484 5483 5482 5480 5479 5478 5477 5476 5475 5474 5473 5472 5471 5471 5471 5471 5472 5473 5473 5474 5475 5477 5478 5479 5481 5483 5484 5486 5487 5489 5490 5492 5493 5495 5496 5497 5499 5500 5501 5502 5504 5506 5508 5511
5477 5475 5474 5473 5471 5470 5469 5468 5467 5465 5464 5463 5463 5462 5462 5462 5462 5463 5464 5465 5465 5467 5468 5470 5472 5473 5475 5477 5479 5481 5482 5484 5486 5487 5488 5490 5491 5492 5493 5495 5496 5498 5500 5502
5469 5468 5466 5465 5464 5462 5461 5460 5458 5457 5456 5455 5454 5453 5453 5453 5453 5454 5454 5455 5456 5457 5459 5461 5462 5464 5466 5468 5470 5472 5474 5476 5478 5479 5481 5482 5483 5485 5486 5487 5489 5490 5492 5494
5461 5460 5458 5457 5456 5454 5453 5451 5450 5449 5448 5446 5445 5445 5444 5444 5444 5445 5445 5446 5447 5448 5450 5452 5454 5456 5458 5460 5462 5464 5466 5468 5469 5471 5473 5474 5476 5477 5478 5480 5481 5483 5485 5486
5453 5451 5450 5448 5447 5446 5445 5443 5442 5440 5439 5438 5437 5436 5436 5436 5436 5437 5438 5438 5439 5440 5442 5444 5446 5448 5450 5452 5454 5456 5458 5459 5461 5463 5465 5467 5468 5469 5471 5472 5474 5475 5477 5478
5445 5443 5442 5440 5438 5437 5436 5435 5433 5432 5431 5430 5429 5429 5428 5429 5429 5429 5430 5431 5431 5433 5434 5436 5438 5440 5442 5444 5446 5448 5450 5451 5453 5455 5457 5459 5460 5462 5463 5465 5466 5468 5469 5471
5437 5435 5433 5432 5430 5429 5427 5426 5425 5424 5423 5422 5421 5421 5421 5421 5421 5422 5422 5423 5424 5426 5427 5429 5430 5432 5434 5436 5438 5440 5441 5443 5445 5447 5449 5451 5453 5454 5456 5457 5459 5460 5462 5463
5429 5427 5425 5423 5422 5420 5419 5418 5417 5416 5415 5414 5414 5413 5413 5413 5414 5414 5415 5416 5417 5419 5420 5422 5423 5425 5427 5428 5430 5432 5433 5435 5437 5439 5441 5443 5445 5446 5448 5450 5451 5453 5454 5455
5421 5419 5417 5415 5414 5412 5411 5410 5409 5408 5407 5407 5406 5406 5406 5406 5406 5407 5408 5409 5410 5412 5413 5415 5416 5418 5419 5421 5422 5424 5425 5427 5429 5431 5433 5435 5437 5439 5440 5442 5443 5445 5446 5447